{"data":{"norad_id":69933,"epoch":"2026-09-19T22:59:51.065088Z","epoch_age_seconds":64576,"freshness":"FRESH","line1":"1 69933U 26156BS  26262.95822992  .00001121  00000+0  11402-3 0  9999","line2":"2 69933  97.7468 162.2649 0007807 272.8857  87.1469 14.92716401 11130","mean_motion":14.92716401,"eccentricity":0.0007807,"inclination_deg":97.7468,"raan_deg":162.2649,"arg_perigee_deg":272.8857,"mean_anomaly_deg":87.1469,"bstar":0.00011402,"rev_number":1113,"period_min":96.468424882001,"perigee_km":584.03025233946,"apogee_km":594.90947369537,"semimajor_km":6967.6068630174,"source":"CELESTRAK","updated_at":"2026-09-20T09:00:25.207699Z"}}